1500364800.93,10069,17.38,74620.5,18.13,-2.11,0.63,0,*52
1500364802.17,10070,17.38,74622.3,18.07,-2.31,0.47,0,*5B
1500364803.43,10071,17.38,74622.8,18.01,-1.99,1.13,0,*6D
1500364804.69,10072,17.38,74616.8,17.97,-1.13,1.93,0,*64
1500364805.88,10073,17.44,74622.0,17.91,0.01,3.03,0,*47
1500364807.14,10074,17.38,74616.8,17.89,1.37,4.31,0,*4B
1500364808.38,10075,17.38,74618.0,17.87,3.07,5.81,0,*4F
1500364809.59,10076,17.38,74612.8,17.87,3.67,6.29,0,*4B
1500364810.81,10077,17.38,74614.5,17.87,3.79,6.03,0,*4D
1500364812.04,10078,17.38,74612.0,17.85,3.37,5.49,0,*47
1500364813.24,10079,17.44,74618.8,17.83,2.59,4.49,0,*48
1500364814.43,10080,17.44,74614.8,17.79,2.31,4.27,0,*4D
1500364815.61,10081,17.38,74614.5,17.79,3.81,5.67,0,*43
1500364816.83,10082,17.44,74614.0,17.77,4.37,5.99,0,*45
1500364818.1,10083,17.38,74612.0,17.77,4.31,5.77,0,*42
1500364819.27,10084,17.38,74612.0,17.75,4.49,5.95,0,*44
1500364820.49,10085,17.44,74614.8,17.73,6.29,7.55,0,*49
1500364821.73,10086,17.38,74612.0,17.69,6.91,8.13,0,*4F
1500364822.95,10087,17.38,74608.8,17.73,6.29,7.29,0,*40
1500364824.19,10088,17.38,74610.5,17.73,6.39,7.29,0,*4E
1500364825.43,10089,17.44,74614.5,17.73,6.21,7.11,0,*4D
1500364826.64,10090,17.38,74610.5,17.73,6.79,7.59,0,*44
1500364827.85,10091,17.44,74614.5,17.73,7.33,8.01,0,*48
1500364829.04,10092,17.44,74614.8,17.75,7.59,8.15,0,*44
1500364830.25,10093,17.44,74614.3,17.75,7.05,7.47,0,*44
1500364831.45,10094,17.38,74612.0,17.75,6.75,7.11,0,*46
1500364832.71,10095,17.44,74614.3,17.73,6.17,6.39,0,*4E
1500364833.94,10096,17.38,74610.5,17.69,6.39,6.53,0,*46
1500364835.12,10097,17.44,74612.5,17.69,5.59,5.71,0,*41
1500364836.38,10098,17.44,74614.8,17.67,5.01,4.97,0,*44
1500364837.56,10099,17.38,74614.5,17.65,5.23,5.29,0,*43
1500364838.77,10100,17.44,74612.8,17.63,5.23,5.19,0,*47
1500364840.01,10101,17.38,74612.3,17.61,5.85,5.85,0,*4D
1500364841.24,10102,17.44,74614.5,17.57,5.85,5.77,0,*46
1500364842.45,10103,17.44,74612.3,17.55,5.29,5.23,0,*42
1500364843.71,10104,17.44,74614.3,17.51,4.93,4.71,0,*47
1500364844.94,10105,17.44,74614.3,17.51,5.73,5.49,0,*43
1500364846.13,10106,17.44,74612.3,17.45,5.99,5.71,0,*4A
1500364847.33,10107,17.44,74618.3,17.43,5.63,5.41,0,*4B
1500364848.55,10108,17.44,74614.0,17.43,5.77,5.49,0,*49
1500364849.74,10109,17.44,74614.8,17.41,4.89,4.57,0,*44
1500364850.99,10110,17.44,74612.5,17.35,5.19,4.75,0,*47
1500364852.19,10111,17.44,74616.5,17.37,5.73,5.45,0,*4A
1500364853.45,10112,17.44,74614.3,17.35,5.81,5.51,0,*43
1500364854.66,10113,17.44,74616.5,17.31,5.49,5.15,0,*42
1500364855.87,10114,17.44,74612.5,17.31,5.95,5.63,0,*45
1500364857.08,10115,17.44,74612.5,17.29,6.17,5.95,0,*4D
1500364858.27,10116,17.44,74612.3,17.29,6.29,5.95,0,*43
1500364859.48,10117,17.44,74614.3,17.27,5.41,5.19,0,*45
1500364860.68,10118,17.44,74618.0,17.27,5.49,5.29,0,*41
1500364861.88,10119,17.38,74614.5,17.23,5.45,5.29,0,*48
1500364863.08,10120,17.44,74616.8,17.21,5.51,5.37,0,*4A
1500364864.29,10121,17.44,74616.3,17.21,5.95,5.85,0,*4A
1500364865.52,10122,17.44,74614.8,17.19,5.73,5.71,0,*41
1500364866.73,10123,17.44,74616.5,17.19,5.59,5.63,0,*4B
1500364867.89,10124,17.44,74612.8,17.17,5.45,5.45,0,*4B
1500364869.07,10125,17.44,74616.5,17.17,5.07,5.07,0,*4A
1500364870.27,10126,17.44,74618.5,17.17,5.45,5.55,0,*48
1500364871.48,10127,17.44,74618.3,17.13,5.73,5.95,0,*44
1500364872.66,10128,17.44,74618.3,17.13,5.95,6.21,0,*4F
1500364873.9,10129,17.44,74616.0,17.13,6.65,6.91,0,*49
1500364875.16,10130,17.44,74616.0,17.15,6.61,6.87,0,*44
1500364876.37,10131,17.44,74616.5,17.15,5.99,6.25,0,*49
1500364877.55,10132,17.44,74618.3,17.13,6.07,6.25,0,*48
1500364878.76,10133,17.44,74614.8,17.13,6.69,6.93,0,*4C
1500364879.93,10134,17.44,74618.0,17.13,6.79,7.01,0,*40
1500364881.17,10135,17.44,74618.0,17.15,6.97,7.19,0,*4E
1500364882.35,10136,17.44,74618.8,17.17,6.97,7.09,0,*4E
1500364883.56,10137,17.44,74618.3,17.15,7.05,7.09,0,*47
1500364884.8,10138,17.44,74614.3,17.15,7.15,7.29,0,*4B
1500364886.06,10139,17.44,74618.8,17.15,7.19,7.19,0,*45
1500364887.26,10140,17.44,74616.5,17.19,7.41,7.41,0,*47
1500364888.44,10141,17.44,74616.3,17.17,7.29,7.41,0,*46
1500364889.64,10142,17.44,74616.3,17.19,7.45,7.45,0,*45
1500364890.84,10143,17.44,74612.8,17.19,7.33,7.33,0,*44
1500364892.09,10144,17.44,74616.5,17.19,6.65,6.53,0,*46
1500364893.34,10145,17.44,74618.0,17.19,6.61,6.53,0,*43
1500364894.55,10146,17.44,74614.0,17.19,6.97,6.83,0,*44
1500364895.78,10147,17.44,74614.3,17.19,6.97,6.87,0,*41
1500364897.04,10148,17.44,74618.0,17.19,7.11,7.11,0,*4F
1500364898.25,10149,17.44,74614.5,17.19,7.29,7.29,0,*4E
1500364899.51,10150,17.44,74618.5,17.19,7.23,7.23,0,*46
1500364900.77,10151,17.44,74612.5,17.19,7.23,7.11,0,*46
1500364901.94,10152,17.44,74616.0,17.21,7.45,7.45,0,*4F
1500364903.12,10153,17.44,74614.8,17.21,7.37,7.37,0,*4E
1500364904.3,10154,17.44,74616.5,17.21,7.37,7.45,0,*4C
1500364905.54,10155,17.44,74618.8,17.21,6.91,6.87,0,*4F
1500364906.73,10156,17.44,74614.8,17.23,7.01,7.01,0,*49
1500364907.96,10157,17.44,74614.5,17.21,7.27,7.23,0,*4E
1500364909.2,10158,17.44,74614.8,17.21,7.15,7.27,0,*44
1500364910.42,10159,17.44,74614.5,17.23,7.47,7.45,0,*44
1500364911.63,10160,17.44,74612.0,17.21,7.47,7.55,0,*4D
1500364912.84,10161,17.44,74614.0,17.21,7.33,7.27,0,*4A
1500364914.06,10162,17.44,74614.8,17.23,7.01,6.87,0,*41
1500364915.24,10163,17.44,74616.0,17.21,6.93,6.75,0,*45
1500364916.43,10164,17.44,74616.8,17.21,6.93,6.75,0,*42
1500364917.68,10165,17.44,74614.5,17.23,6.87,6.53,0,*40
1500364918.91,10166,17.44,74614.5,17.19,6.61,6.33,0,*44
1500364920.17,10167,17.44,74616.0,17.19,6.73,6.39,0,*4C
1500364921.37,10168,17.44,74616.8,17.17,7.09,6.73,0,*4F
1500364922.59,10169,17.44,74612.5,17.17,7.11,6.61,0,*44
1500364923.81,10170,17.44,74614.0,17.17,6.87,6.39,0,*4F
1500364925.02,10171,17.44,74614.3,17.17,6.97,6.47,0,*46
1500364926.24,10172,17.44,74616.5,17.15,6.25,5.71,0,*48
1500364927.47,10173,17.44,74610.8,17.17,6.57,5.93,0,*42
1500364928.69,10174,17.44,74616.8,17.13,6.51,6.11,0,*4E
1500364929.9,10175,17.44,74614.5,17.13,6.33,5.73,0,*4C
1500364931.12,10176,17.44,74616.0,17.11,6.03,5.41,0,*4F
1500364932.31,10177,17.44,74618.5,17.09,6.29,5.71,0,*4C
1500364933.49,10178,17.44,74614.0,17.09,5.95,5.29,0,*4A
1500364934.71,10179,17.44,74618.3,17.09,6.29,5.73,0,*40
1500364935.91,10180,17.44,74618.8,17.05,5.99,5.45,0,*47
1500364937.15,10181,17.44,74614.5,17.05,6.03,5.51,0,*43
1500364938.34,10182,17.44,74616.0,16.99,5.59,5.15,0,*48
1500364939.53,10183,17.44,74614.0,16.99,5.59,5.19,0,*45
1500364940.74,10184,17.44,74616.8,16.99,5.11,4.59,0,*4B
1500364941.97,10185,17.44,74616.3,16.97,4.79,4.41,0,*42
1500364943.16,10186,17.44,74620.0,16.91,4.89,4.45,0,*4C
1500364944.34,10187,17.44,74616.0,16.91,4.11,3.55,0,*4A
1500364945.55,10188,17.44,74618.8,16.91,4.93,4.45,0,*49
1500364946.79,10189,17.44,74620.0,16.87,5.55,5.01,0,*45
1500364948.01,10190,17.44,74616.3,16.87,5.01,4.41,0,*49
1500364949.23,10191,17.44,74618.5,16.85,5.01,4.27,0,*4A
1500364950.44,10192,17.44,74618.3,16.83,4.81,4.01,0,*42
1500364951.68,10193,17.44,74616.8,16.83,4.59,3.71,0,*46
1500364952.91,10194,17.44,74618.5,16.77,4.85,3.97,0,*43
1500364954.14,10195,17.44,74620.8,16.75,5.11,4.31,0,*47
1500364955.33,10196,17.44,74620.3,16.73,5.23,4.37,0,*45
1500364956.53,10197,17.44,74616.5,16.73,5.55,4.53,0,*47
1500364957.79,10198,17.44,74622.8,16.71,4.97,3.79,0,*4A
1500364958.99,10199,17.44,74616.5,16.69,4.81,3.67,0,*4A
1500364960.18,10200,17.44,74622.5,16.69,5.29,4.01,0,*4D
1500364961.39,10201,17.44,74624.3,16.67,5.59,4.11,0,*44
1500364962.63,10202,17.44,74618.3,16.67,5.93,4.41,0,*44
1500364963.86,10203,17.44,74618.8,16.65,5.55,4.01,0,*49
1500364965.06,10204,17.44,74620.0,16.61,5.85,4.11,0,*46
1500364966.28,10205,17.44,74620.0,16.61,5.85,4.01,0,*46
1500364967.49,10206,17.44,74620.3,16.63,6.11,4.23,0,*49
1500364968.72,10207,17.44,74620.5,16.61,5.73,3.79,0,*45
1500364969.9,10208,17.44,74622.8,16.61,5.63,3.55,0,*45
1500364971.12,10209,17.44,74622.8,16.61,5.85,3.67,0,*4D
1500364972.33,10210,17.44,74618.8,16.61,5.37,3.07,0,*4A
1500364973.57,10211,17.44,74622.5,16.59,5.19,2.77,0,*4A
1500364974.8,10212,17.44,74618.3,16.55,5.01,2.35,0,*4A
1500364976.0,10213,17.44,74620.0,16.55,5.45,2.65,0,*4E
1500364977.21,10214,17.44,74618.3,16.55,5.59,2.65,0,*44
1500364978.38,10215,17.44,74622.5,16.53,5.45,2.35,0,*4B
1500364979.58,10216,17.44,74622.5,16.53,5.11,1.89,0,*4D
1500364980.81,10217,17.44,74620.3,16.53,4.93,1.51,0,*42
1500364982.05,10218,17.44,74620.3,16.49,4.71,1.17,0,*48
1500364983.24,10219,17.44,74622.8,16.49,4.11,0.43,0,*7F
1500364984.47,10220,17.44,74620.5,16.47,4.53,0.79,0,*74
1500364985.67,10221,17.44,74620.8,16.49,4.37,0.67,0,*76
1500364986.92,10222,17.44,74622.3,16.47,3.97,0.41,0,*72
1500364988.16,10223,17.44,74624.3,16.49,3.67,0.41,0,*72
1500364989.41,10224,17.44,74622.0,16.47,3.41,0.17,0,*7C
1500364990.63,10225,17.44,74622.8,16.47,2.91,-0.33,0,*5A
1500364991.87,10226,17.44,74620.3,16.47,2.31,-0.97,0,*5D
1500364993.08,10227,17.44,74620.3,16.47,0.97,-2.19,0,*56
1500364994.33,10228,17.44,74622.8,16.45,1.71,-1.05,0,*6C
1500364995.55,10229,17.44,74622.0,16.43,0.95,-1.67,0,*54
1500364996.75,10230,17.44,74622.3,16.43,0.17,-2.39,0,*5E
1500364997.99,10231,17.44,74622.3,16.43,0.17,-2.07,0,*52
1500364999.18,10232,17.44,74620.8,16.39,-0.37,-2.43,0,*73
1500365000.41,10233,17.44,74626.5,16.41,-0.07,-1.91,0,*42
1500365001.63,10234,17.44,74620.8,16.39,-0.33,-1.87,0,*7A
1500365002.86,10235,17.44,74622.5,16.39,0.29,-1.09,0,*5B
1500365004.06,10236,17.44,74622.0,16.39,0.05,-1.13,0,*6D
1500365005.28,10237,17.44,74626.5,16.39,-0.37,-1.43,0,*75
1500365006.5,10238,17.44,74622.3,16.39,-1.95,-2.99,0,*47
1500365007.76,10239,17.44,74620.5,16.33,-1.79,-2.51,0,*4A
1500365009.01,10240,17.44,74622.8,16.37,-1.83,-2.35,0,*47
1500365010.26,10241,17.44,74622.8,16.33,-1.47,-1.71,0,*49
1500365011.51,10242,17.44,74620.5,16.33,-1.35,-1.51,0,*4D
1500365012.71,10243,17.44,74624.8,16.31,-1.79,-1.55,0,*42
1500365013.93,10244,17.44,74622.8,16.31,-1.79,-1.43,0,*42
1500365015.12,10245,17.44,74626.0,16.31,-2.39,-1.79,0,*4D
1500365016.38,10246,17.44,74620.5,16.29,-3.59,-2.95,0,*41
1500365017.66,10247,17.44,74620.3,16.29,-3.59,-2.55,0,*4C
1500365018.89,10248,17.44,74622.3,16.27,-3.23,-1.99,0,*43
1500365020.12,10249,17.44,74620.3,16.23,-3.91,-2.59,0,*40
1500365021.35,10250,17.44,74622.5,16.23,-4.05,-2.51,0,*4A
1500365022.55,10251,17.44,74622.3,16.23,-4.25,-2.39,0,*47
1500365023.79,10252,17.44,74620.3,16.21,-3.79,-1.79,0,*4F
1500365025.03,10253,17.44,74620.5,16.21,-3.67,-1.63,0,*4A
1500365026.26,10254,17.44,74622.8,16.19,-3.87,-1.35,0,*4B
1500365027.52,10255,17.44,74620.3,16.19,-3.71,-1.05,0,*40
1500365028.72,10256,17.44,74620.0,16.19,-3.35,-0.45,0,*76
1500365029.96,10257,17.44,74620.8,16.19,-2.71,0.29,0,*51
1500365031.23,10258,17.44,74622.3,16.21,-2.03,1.13,0,*68
1500365032.49,10259,17.44,74620.3,16.21,-1.95,1.29,0,*6C
1500365033.72,10260,17.44,74620.3,16.21,-1.79,1.43,0,*68
1500365034.93,10261,17.44,74620.5,16.23,-2.79,0.51,0,*5A
1500365036.12,10262,17.44,74622.0,16.23,-2.99,0.43,0,*54
1500365037.33,10263,17.44,74620.0,16.23,-3.07,0.37,0,*50
1500365038.55,10264,17.5,74626.8,16.27,-2.19,1.13,0,*6A
1500365039.79,10265,17.44,74622.5,16.23,-0.97,2.39,0,*50
1500365041.04,10266,17.44,74626.3,16.29,-1.33,2.13,0,*6E
1500365042.26,10267,17.44,74620.0,16.31,-3.43,0.09,0,*6A
1500365043.5,10268,17.44,74622.3,16.29,-2.95,0.67,0,*5E
1500365044.76,10269,17.44,74622.5,16.29,-3.71,0.13,0,*57
1500365045.95,10270,17.44,74622.0,16.27,-2.83,1.01,0,*6F
1500365047.17,10271,17.44,74622.3,16.27,-2.07,1.83,0,*68
1500365048.41,10272,17.44,74618.5,16.27,-1.99,1.97,0,*6A
1500365049.66,10273,17.5,74622.8,16.27,-1.99,1.97,0,*6B
1500365050.93,10274,17.44,74616.8,16.29,-0.23,3.75,0,*5C
1500365052.14,10275,17.44,74622.0,16.31,-0.41,3.79,0,*5C
1500365053.38,10276,17.44,74616.8,16.33,-0.65,3.49,0,*58
1500365054.59,10277,17.44,74620.3,16.37,-0.37,3.59,0,*5B
1500365055.84,10278,17.44,74622.0,16.37,0.59,4.31,0,*78
1500365057.07,10279,17.44,74616.5,16.41,2.35,5.77,0,*43
1500365058.31,10280,17.44,74616.8,16.45,3.11,6.17,0,*43
1500365059.55,10281,17.44,74616.5,16.45,3.11,5.93,0,*4D
1500365060.82,10282,17.44,74618.3,16.51,3.07,5.73,0,*42
1500365062.0,10283,17.5,74620.0,16.53,4.27,6.79,0,*4D
1500365063.2,10284,17.44,74616.3,16.61,4.97,7.33,0,*4F
1500365064.43,10285,17.44,74616.5,16.65,5.01,7.27,0,*41
1500365065.63,10286,17.5,74616.3,16.69,4.45,6.53,0,*4D
1500365066.81,10287,17.44,74616.8,16.73,4.89,6.79,0,*4F
1500365068.04,10288,17.44,74618.8,16.75,5.07,6.91,0,*47
1500365069.27,10289,17.44,74614.3,16.81,5.63,7.11,0,*46
1500365070.5,10290,17.44,74614.8,16.83,5.77,7.19,0,*41
1500365071.74,10291,17.44,74618.5,16.87,5.01,6.35,0,*4A
1500365072.96,10292,17.44,74618.5,16.89,5.37,6.73,0,*40
1500365074.16,10293,17.44,74618.0,16.91,5.49,6.65,0,*46
1500365075.37,10294,17.5,74620.5,16.93,4.81,6.03,0,*46
1500365076.6,10295,17.44,74616.3,16.95,5.01,6.13,0,*49
1500365077.85,10296,17.44,74616.0,16.97,4.79,5.81,0,*4E
1500365079.1,10297,17.44,74614.5,17.01,4.93,5.73,0,*48
1500365080.31,10298,17.44,74612.8,16.99,4.67,5.49,0,*45
1500365081.51,10299,17.44,74616.3,17.01,5.23,6.21,0,*48
1500365082.73,10300,17.44,74616.8,17.01,5.67,6.57,0,*48
1500365083.93,10301,17.44,74618.3,17.05,5.23,6.11,0,*4F
1500365085.11,10302,17.44,74616.0,17.07,5.07,6.03,0,*4B
1500365086.3,10303,17.44,74616.8,17.07,4.27,5.19,0,*41
1500365087.48,10304,17.44,74614.5,17.09,4.45,5.49,0,*49
1500365088.74,10305,17.5,74618.8,17.11,5.01,6.17,0,*48
1500365089.92,10306,17.44,74618.3,17.09,5.71,6.79,0,*4D
1500365091.14,10307,17.44,74616.5,17.13,5.55,6.69,0,*40
1500365092.37,10308,17.5,74618.8,17.15,5.93,7.09,0,*44
1500365093.61,10309,17.44,74614.5,17.15,6.11,7.27,0,*40
1500365094.84,10310,17.44,74616.0,17.19,6.53,7.51,0,*43
1500365096.02,10311,17.5,74618.3,17.21,5.67,6.75,0,*4A
1500365097.27,10312,17.5,74618.0,17.23,5.55,6.65,0,*4B
1500365098.47,10313,17.44,74616.8,17.23,5.07,6.11,0,*4E
1500365099.7,10314,17.44,74618.5,17.23,5.37,6.35,0,*4C
1500365100.94,10315,17.5,74616.5,17.27,6.21,7.27,0,*4F
1500365102.2,10316,17.44,74612.8,17.31,6.65,7.69,0,*41
1500365103.47,10317,17.44,74614.5,17.31,6.73,7.77,0,*48
1500365104.71,10318,17.44,74614.8,17.35,6.83,7.95,0,*40
1500365105.94,10319,17.44,74614.3,17.35,5.41,6.35,0,*47
1500365107.15,10320,17.5,74616.5,17.37,5.11,5.93,0,*45
1500365108.38,10321,17.44,74614.3,17.35,5.33,6.39,0,*45
1500365109.61,10322,17.44,74612.8,17.35,5.01,6.11,0,*4D
1500365110.84,10323,17.5,74616.5,17.35,5.07,6.13,0,*48
1500365112.05,10324,17.44,74614.8,17.35,4.15,5.33,0,*4C
1500365113.26,10325,17.5,74616.5,17.31,4.45,5.71,0,*4A
1500365114.44,10326,17.44,74616.0,17.33,4.85,5.95,0,*4D
1500365115.67,10327,17.5,74618.5,17.33,3.75,4.59,0,*45
1500365116.88,10328,17.5,74618.8,17.31,3.59,4.53,0,*4C
1500365118.1,10329,17.44,74614.8,17.31,4.19,5.11,0,*49
1500365119.3,10330,17.44,74616.0,17.29,4.89,5.93,0,*4B
1500365120.54,10331,17.5,74618.3,17.27,4.89,5.81,0,*47
1500365121.75,10332,17.44,74614.3,17.27,5.23,6.03,0,*4C
1500365122.99,10333,17.5,74618.3,17.21,4.71,5.51,0,*49
1500365124.22,10334,17.44,74612.5,17.21,4.71,5.55,0,*4A
1500365125.45,10335,17.44,74616.8,17.21,4.97,5.73,0,*47
1500365126.68,10336,17.5,74616.5,17.19,5.23,5.81,0,*4C
1500365127.88,10337,17.5,74618.8,17.17,3.19,3.93,0,*49
1500365129.12,10338,17.5,74618.5,17.15,4.63,5.59,0,*4E
1500365130.32,10339,17.44,74614.5,17.13,5.27,6.21,0,*44
1500365131.55,10340,17.44,74616.8,17.13,5.55,6.47,0,*4F
1500365132.74,10341,17.5,74620.8,17.13,4.85,5.67,0,*43
1500365134.0,10342,17.5,74620.3,17.15,5.01,5.89,0,*4B
1500365135.23,10343,17.5,74620.0,17.13,4.93,5.85,0,*4A
1500365136.43,10344,17.5,74618.8,17.13,5.15,6.13,0,*4E
1500365137.63,10345,17.5,74622.3,17.09,5.27,6.29,0,*4C
1500365138.87,10346,17.5,74620.5,17.11,5.51,6.53,0,*4A
1500365140.1,10347,17.5,74620.0,17.11,5.63,6.61,0,*4B
1500365141.33,10348,17.5,74618.3,17.11,5.73,6.75,0,*40
1500365142.56,10349,17.5,74618.8,17.11,6.07,6.91,0,*4B
1500365143.8,10350,17.44,74616.3,17.11,5.11,5.85,0,*41
1500365144.98,10351,17.5,74620.0,17.09,5.41,6.21,0,*41
1500365146.16,10352,17.44,74620.8,17.09,5.15,5.95,0,*4F
1500365147.34,10353,17.5,74622.0,17.09,3.59,4.23,0,*4C
1500365148.57,10354,17.5,74620.8,17.07,4.63,5.27,0,*4E
1500365149.8,10355,17.44,74620.5,17.05,3.67,4.15,0,*4E
1500365150.98,10356,17.5,74620.8,16.99,3.63,4.07,0,*4E
1500365152.22,10357,17.5,74622.0,16.99,4.31,4.79,0,*46
1500365153.46,10358,17.44,74618.3,16.97,5.89,6.25,0,*4E
1500365154.67,10359,17.5,74622.8,16.97,4.85,5.15,0,*42
1500365155.9,10360,17.5,74624.5,16.95,3.71,3.97,0,*4A
1500365157.09,10361,17.5,74622.5,16.95,4.89,5.11,0,*43
1500365158.29,10362,17.5,74622.8,16.91,5.29,5.51,0,*4B
1500365159.48,10363,17.5,74620.8,16.91,6.11,6.25,0,*42
1500365160.71,10364,17.5,74622.3,16.91,6.43,6.53,0,*43
1500365161.92,10365,17.5,74620.5,16.93,6.21,6.25,0,*45
1500365163.15,10366,17.5,74618.8,16.95,6.61,6.61,0,*44
1500365164.36,10367,17.5,74620.0,16.95,6.29,6.13,0,*4C
1500365165.57,10368,17.5,74620.5,16.95,6.51,6.29,0,*45
1500365166.81,10369,17.5,74620.0,16.95,6.51,6.13,0,*4D
1500365168.02,10370,17.5,74622.3,16.95,6.13,5.67,0,*43
1500365169.23,10371,17.5,74622.0,16.95,6.17,5.49,0,*4A
1500365170.47,10372,17.5,74622.5,16.95,5.81,5.01,0,*49
1500365171.65,10373,17.5,74622.8,16.95,6.07,4.89,0,*44
1500365172.85,10374,17.5,74622.5,16.95,5.11,3.71,0,*47
1500365174.09,10375,17.5,74620.8,16.93,5.11,3.41,0,*43
1500365175.29,10376,17.5,74620.0,16.93,5.99,4.11,0,*42
1500365176.5,10377,17.5,74620.8,16.91,6.39,4.19,0,*40
1500365177.75,10378,17.5,74620.0,16.93,5.85,3.19,0,*4E
1500365178.93,10379,17.5,74624.5,16.91,5.59,2.65,0,*46
1500365180.11,10380,17.5,74620.8,16.91,5.63,2.31,0,*48
1500365181.32,10381,17.5,74622.3,16.87,5.33,1.55,0,*4A
1500365182.55,10382,17.5,74624.0,16.87,4.97,0.87,0,*78
1500365183.78,10383,17.5,74622.0,16.87,5.05,0.51,0,*78
1500365185.0,10384,17.5,74620.8,16.85,4.37,-0.33,0,*54
1500365186.2,10385,17.5,74622.3,16.83,4.85,0.29,0,*7C
1500365187.38,10386,17.5,74622.0,16.83,4.85,0.05,0,*41
1500365188.57,10387,17.5,74622.3,16.83,4.37,-0.29,0,*5A
1500365189.81,10388,17.5,74622.3,16.77,3.71,-1.29,0,*6A
1500365191.02,10389,17.5,74620.0,16.73,3.89,-1.05,0,*66
1500365192.23,10390,17.5,74620.0,16.73,4.01,-0.77,0,*5D
1500365193.44,10391,17.5,74624.5,16.73,3.79,-0.77,0,*54
1500365194.67,10392,17.5,74622.5,16.69,3.79,-0.97,0,*52
1500365195.91,10393,17.5,74620.8,16.69,3.19,-2.47,0,*6A
1500365197.15,10394,17.5,74622.5,16.67,1.93,-4.37,0,*62
1500365198.38,10395,17.5,74620.5,16.63,0.51,-6.13,0,*5C
1500365199.6,10396,17.5,74622.5,16.61,1.79,-5.03,0,*64
1500365200.86,10397,17.5,74622.8,16.55,1.43,-5.65,0,*6B
1500365202.09,10398,17.5,74620.8,16.51,1.79,-5.35,0,*6C
1500365203.33,10399,17.5,74622.3,16.51,1.97,-5.47,0,*68
1500365204.54,10400,17.5,74624.8,16.49,0.75,-6.59,0,*57
1500365205.74,10401,17.5,74624.0,16.43,-0.81,-8.25,0,*7F
1500365206.98,10402,17.5,74624.8,16.41,-0.97,-8.25,0,*79
1500365208.16,10403,17.5,74624.0,16.39,-1.59,-8.59,0,*4F
1500365209.44,10404,17.5,74622.0,16.33,-2.11,-8.81,0,*48
1500365210.68,10405,17.5,74620.0,16.29,-2.07,-8.41,0,*49
1500365211.9,10406,17.5,74622.0,16.23,-2.47,-8.67,0,*40
1500365213.14,10407,17.5,74620.3,16.21,-2.55,-8.67,0,*40
1500365214.36,10408,17.5,74622.3,16.19,-2.47,-8.55,0,*46
1500365215.56,10409,17.5,74618.8,16.15,-2.27,-8.21,0,*4E
1500365216.77,10410,17.5,74618.8,16.11,-2.55,-8.63,0,*41
1500365217.98,10411,17.5,74616.3,16.05,-3.87,-9.89,0,*4E
1500365219.2,10412,17.5,74618.0,16.03,-3.79,-9.61,0,*4C
1500365220.4,10413,17.5,74618.5,15.99,-3.95,-9.71,0,*4E
1500365221.63,10414,17.5,74616.5,15.93,-4.85,-10.57,0,*79
1500365222.85,10415,17.5,74620.0,15.91,-6.55,-12.35,0,*73
1500365224.07,10416,17.5,74620.8,15.83,-5.73,-11.01,0,*70
1500365225.31,10417,17.5,74620.0,15.79,-6.55,-11.73,0,*76
1500365226.56,10418,17.5,74626.0,15.75,-7.11,-11.93,0,*7A
1500365227.78,10419,17.5,74622.3,15.69,-6.97,-11.45,0,*72
1500365229.01,10420,17.5,74622.0,15.63,-6.77,-10.93,0,*76
1500365230.25,10421,17.5,74624.5,15.59,-6.43,-10.19,0,*7B
1500365231.45,10422,17.5,74624.5,15.57,-6.35,-9.71,0,*41
1500365232.68,10423,17.5,74626.8,15.53,-6.63,-9.61,0,*46
1500365233.89,10424,17.5,74622.8,15.49,-6.27,-8.55,0,*4C
1500365235.14,10425,17.5,74624.3,15.49,-5.85,-7.57,0,*4B
1500365236.38,10426,17.5,74626.3,15.45,-5.65,-6.85,0,*44
1500365237.62,10427,17.5,74620.5,15.45,-5.65,-6.31,0,*4A
1500365238.89,10428,17.5,74624.0,15.45,-5.27,-5.27,0,*47
1500365240.11,10429,17.5,74622.5,15.37,-4.61,-4.21,0,*47
1500365241.33,10430,17.5,74624.5,15.37,-3.95,-3.35,0,*41
1500365242.56,10431,17.5,74624.3,15.35,-3.31,-2.67,0,*4A
1500365243.8,10432,17.5,74626.3,15.33,-3.15,-2.71,0,*4E
1500365245.03,10433,17.5,74622.3,15.31,-1.87,-1.71,0,*47
1500365246.29,10434,17.5,74626.5,15.29,-1.05,-1.13,0,*47
1500365247.52,10435,17.5,74620.0,15.29,-0.65,-1.13,0,*71
1500365248.71,10436,17.5,74624.3,15.27,-0.69,-1.33,0,*72
1500365249.9,10437,17.5,74620.0,15.27,-0.53,-1.21,0,*79
1500365251.16,10438,17.5,74622.8,15.25,-0.85,-1.35,0,*7A
1500365252.39,10439,17.5,74626.5,15.23,-2.19,-2.51,0,*4B
1500365253.62,10440,17.5,74626.3,15.17,-2.95,-2.95,0,*4E
1500365254.86,10441,17.5,74622.0,15.17,-2.91,-2.55,0,*47
1500365256.13,10442,17.5,74620.5,15.15,-2.71,-1.91,0,*43
1500365257.34,10443,17.5,74620.5,15.11,-2.23,-1.25,0,*4E
1500365258.58,10444,17.5,74622.5,15.09,-2.55,-1.47,0,*45
1500365259.82,10445,17.5,74618.0,15.07,-1.95,-0.77,0,*77
1500365261.03,10446,17.5,74622.3,15.05,-1.87,-0.73,0,*71
1500365262.29,10447,17.5,74622.8,15.03,-1.09,0.13,0,*5B
1500365263.53,10448,17.5,74620.3,15.03,-0.69,0.47,0,*62
1500365264.79,10449,17.5,74622.0,15.03,-0.93,0.21,0,*66
1500365265.99,10450,17.5,74616.8,15.01,-0.97,0.01,0,*5A
1500365267.22,10451,17.5,74620.5,14.95,-0.45,0.41,0,*6C
1500365268.44,10452,17.5,74622.3,14.95,-0.29,0.71,0,*66
1500365269.64,10453,17.5,74618.0,14.99,-0.03,1.05,0,*61
1500365270.87,10454,17.5,74616.8,14.95,-0.65,0.29,0,*65
1500365272.09,10455,17.5,74622.5,14.91,-0.49,0.41,0,*60
1500365273.35,10456,17.5,74622.8,14.91,-0.27,0.47,0,*6D
1500365274.6,10457,17.5,74618.5,14.91,-0.23,0.75,0,*69
1500365275.8,10458,17.5,74620.5,14.87,-0.53,0.09,0,*5D
1500365277.06,10459,17.5,74620.8,14.87,-0.27,0.21,0,*65
1500365278.27,10460,17.5,74622.8,14.87,-0.65,-0.29,0,*4C
1500365279.46,10461,17.5,74616.3,14.85,0.37,0.43,0,*44
1500365280.7,10462,17.5,74616.5,14.83,0.25,0.13,0,*47
1500365281.92,10463,17.5,74618.0,14.83,0.97,0.63,0,*48
1500365283.09,10464,17.5,74616.8,14.81,0.01,-0.65,0,*59
1500365284.31,10465,17.5,74622.8,14.79,0.21,-0.77,0,*6E
1500365285.52,10466,17.5,74622.5,14.79,-0.33,-1.51,0,*76
1500365286.73,10467,17.5,74624.3,14.77,-0.27,-1.63,0,*7D
1500365287.97,10468,17.5,74620.8,14.71,-0.85,-2.35,0,*7C
1500365289.19,10469,17.5,74624.3,14.69,-0.77,-2.47,0,*7C
1500365290.38,10470,17.5,74620.0,14.69,-0.49,-2.23,0,*7B
1500365291.56,10471,17.5,74616.5,14.65,-0.07,-1.63,0,*4B
1500365292.74,10472,17.5,74620.8,14.65,-0.07,-1.55,0,*4D
1500365293.99,10473,17.5,74620.5,14.67,0.17,-1.39,0,*58
1500365295.21,10474,17.5,74622.3,14.65,0.25,-1.13,0,*54
1500365296.44,10475,17.5,74622.0,14.65,0.25,-1.05,0,*52
1500365297.68,10476,17.5,74622.5,14.67,0.25,-0.93,0,*6D
1500365298.9,10477,17.5,74622.8,14.65,0.25,-0.93,0,*6E
1500365300.1,10478,17.5,74622.3,14.67,-0.49,-1.51,0,*7B
1500365301.31,10479,17.5,74618.8,14.65,-0.89,-1.75,0,*72
1500365302.53,10480,17.5,74618.5,14.65,-0.77,-1.35,0,*71
1500365303.71,10481,17.5,74616.8,14.65,-0.37,-0.69,0,*4C
1500365304.88,10482,17.5,74618.8,14.65,0.05,-0.15,0,*58
1500365306.08,10483,17.5,74620.0,14.67,-0.07,-0.03,0,*43
1500365307.26,10484,17.5,74620.0,14.69,-0.33,-0.03,0,*7D
1500365308.47,10485,17.5,74620.0,14.71,-0.65,-0.11,0,*45
1500365309.71,10486,17.5,74616.8,14.71,-0.97,-0.03,0,*78
1500365310.96,10487,17.5,74618.3,14.75,-0.97,0.17,0,*65
1500365312.19,10488,17.5,74618.0,14.75,-0.69,0.91,0,*65
1500365313.41,10489,17.5,74616.3,14.77,-0.89,0.95,0,*6C
1500365314.62,10490,17.5,74616.3,14.77,-0.53,1.63,0,*5B
1500365315.82,10491,17.5,74618.0,14.81,0.13,2.61,0,*7B
1500365317.03,10492,17.5,74620.3,14.83,0.17,2.91,0,*71
1500365318.23,10493,17.5,74618.3,14.85,0.43,3.41,0,*7B
1500365319.45,10494,17.5,74618.8,14.89,1.33,4.41,0,*41
1500365320.68,10495,17.5,74618.5,14.91,2.05,5.15,0,*4F